Location: Berg
(47.2344°N, 9.5296°E)
Time: 14:37:00
(UTC+00:00)

N. Korean satellite - Pass Details

Date: 23 September 2021
Orbit: 450 x 495 km, 97.3° (Epoch: 19 October)

Event Time Altitude Azimuth Distance (km) Brightness Sun altitude
Rises 04:26:01 0° 17° (NNE) 2,517 10.6 -8.3°
Reaches altitude 10° 04:28:07 10° 23° (NNE) 1,643 9.7 -7.9°
Maximum altitude 04:31:33 50° 100° (E) 616 7.6 -7.3°
Drops below altitude 10° 04:35:01 10° 176° (S) 1,655 9.2 -6.8°
Sets 04:37:08 0° 182° (S) 2,537 10.1 -6.4°
